TimeEST,TemperatureF,Dew PointF,Humidity,Sea Level PressureIn,VisibilityMPH,Wind Direction,Wind SpeedMPH,Gust SpeedMPH,PrecipitationIn,Events,Conditions,WindDirDegrees,DateUTC
12:15 AM,31.6,29.3,91,30.12,10.0,Calm,Calm,-,N/A,,Clear,0,2013-01-21 05:15:00
12:35 AM,30.9,29.3,94,30.12,10.0,Calm,Calm,-,N/A,,Clear,0,2013-01-21 05:35:00
12:55 AM,30.2,30.2,100,30.12,10.0,Calm,Calm,-,N/A,,Clear,0,2013-01-21 05:55:00
1:15 AM,30.4,29.1,95,30.12,10.0,Calm,Calm,-,N/A,,Clear,0,2013-01-21 06:15:00
1:35 AM,29.3,28.0,95,30.12,10.0,Calm,Calm,-,N/A,,Clear,0,2013-01-21 06:35:00
1:55 AM,29.3,28.0,95,30.12,10.0,Calm,Calm,-,N/A,,Clear,0,2013-01-21 06:55:00
2:15 AM,29.5,28.4,96,30.12,10.0,Calm,Calm,-,N/A,,Clear,0,2013-01-21 07:15:00
2:35 AM,29.8,27.9,92,30.11,10.0,Calm,Calm,-,N/A,,Clear,0,2013-01-21 07:35:00
2:55 AM,28.9,27.5,94,30.11,10.0,Calm,Calm,-,N/A,,Clear,0,2013-01-21 07:55:00
3:15 AM,28.6,27.5,96,30.11,10.0,Calm,Calm,-,N/A,,Clear,0,2013-01-21 08:15:00
3:35 AM,28.9,27.3,94,30.11,10.0,Calm,Calm,-,N/A,,Clear,0,2013-01-21 08:35:00
3:55 AM,28.4,27.3,96,30.10,10.0,Calm,Calm,-,N/A,,Clear,0,2013-01-21 08:55:00
4:15 AM,28.6,27.5,96,30.10,10.0,Calm,Calm,-,N/A,,Clear,0,2013-01-21 09:15:00
4:35 AM,27.9,26.6,95,30.10,10.0,Calm,Calm,-,N/A,,Clear,0,2013-01-21 09:35:00
4:55 AM,28.8,27.0,93,30.10,10.0,Calm,Calm,-,N/A,,Clear,0,2013-01-21 09:55:00
5:15 AM,27.5,26.8,97,30.10,10.0,Calm,Calm,-,N/A,,Clear,0,2013-01-21 10:15:00
5:35 AM,27.3,26.6,97,30.10,10.0,Calm,Calm,-,N/A,,Clear,0,2013-01-21 10:35:00
5:55 AM,26.6,26.2,99,30.09,10.0,Calm,Calm,-,N/A,,Clear,0,2013-01-21 10:55:00
6:15 AM,27.1,26.4,97,30.09,10.0,Calm,Calm,-,N/A,,Clear,0,2013-01-21 11:15:00
6:35 AM,27.5,26.6,96,30.09,10.0,Calm,Calm,-,N/A,,Clear,0,2013-01-21 11:35:00
6:55 AM,27.3,26.2,96,30.10,10.0,Calm,Calm,-,N/A,,Clear,0,2013-01-21 11:55:00
7:15 AM,27.3,26.6,97,30.10,10.0,Calm,Calm,-,N/A,,Clear,0,2013-01-21 12:15:00
7:35 AM,28.4,26.6,93,30.11,10.0,Calm,Calm,-,N/A,,Clear,0,2013-01-21 12:35:00
7:55 AM,27.5,26.8,97,30.12,10.0,Calm,Calm,-,N/A,,Clear,0,2013-01-21 12:55:00
8:15 AM,29.3,28.2,96,30.12,10.0,Calm,Calm,-,N/A,,Clear,0,2013-01-21 13:15:00
8:35 AM,31.8,30.2,94,30.11,10.0,Calm,Calm,-,N/A,,Clear,0,2013-01-21 13:35:00
8:55 AM,34.0,32.4,94,30.12,10.0,Calm,Calm,-,N/A,,Clear,0,2013-01-21 13:55:00
9:15 AM,37.6,34.5,89,30.10,10.0,Calm,Calm,-,N/A,,Clear,0,2013-01-21 14:15:00
9:35 AM,40.8,34.7,79,30.12,10.0,Calm,Calm,-,N/A,,Clear,0,2013-01-21 14:35:00
9:55 AM,46.2,35.2,66,30.12,10.0,Calm,Calm,-,N/A,,Clear,0,2013-01-21 14:55:00
10:15 AM,48.4,34.3,58,30.10,10.0,South,6.9,-,N/A,,Clear,170,2013-01-21 15:15:00
10:35 AM,50.0,33.4,53,30.10,10.0,SSE,10.4,-,N/A,,Clear,160,2013-01-21 15:35:00
10:55 AM,52.2,33.6,49,30.09,10.0,South,6.9,-,N/A,,Clear,170,2013-01-21 15:55:00
11:15 AM,53.6,32.7,45,30.08,10.0,SSE,8.1,-,N/A,,Clear,160,2013-01-21 16:15:00
11:35 AM,53.8,32.2,44,30.07,10.0,South,8.1,-,N/A,,Clear,190,2013-01-21 16:35:00
11:55 AM,55.2,31.1,40,30.06,10.0,SSW,8.1,-,N/A,,Clear,210,2013-01-21 16:55:00
12:15 PM,55.6,30.4,38,30.04,10.0,South,6.9,-,N/A,,Clear,190,2013-01-21 17:15:00
12:35 PM,56.7,26.6,32,30.03,10.0,SW,5.8,-,N/A,,Clear,230,2013-01-21 17:35:00
12:55 PM,56.5,26.6,32,30.01,10.0,South,6.9,-,N/A,,Clear,190,2013-01-21 17:55:00
1:15 PM,57.4,27.3,32,30.00,10.0,SW,3.5,-,N/A,,Clear,230,2013-01-21 18:15:00
1:35 PM,58.5,29.7,33,29.99,10.0,WSW,9.2,-,N/A,,Clear,240,2013-01-21 18:35:00
1:55 PM,58.3,28.8,33,29.97,10.0,WSW,6.9,-,N/A,,Clear,250,2013-01-21 18:55:00
2:15 PM,59.2,29.7,33,29.97,10.0,WSW,9.2,-,N/A,,Clear,250,2013-01-21 19:15:00
2:35 PM,58.8,29.3,33,29.96,10.0,SSW,5.8,-,N/A,,Clear,210,2013-01-21 19:35:00
2:55 PM,59.2,29.5,32,29.96,10.0,WSW,10.4,17.3,N/A,,Clear,240,2013-01-21 19:55:00
3:15 PM,60.1,28.4,30,29.96,10.0,West,12.7,17.3,N/A,,Clear,260,2013-01-21 20:15:00
3:35 PM,59.2,27.1,29,29.96,10.0,West,8.1,21.9,N/A,,Clear,280,2013-01-21 20:35:00
3:55 PM,59.2,27.9,30,29.95,10.0,West,9.2,16.1,N/A,,Clear,270,2013-01-21 20:55:00
4:15 PM,58.6,28.0,31,29.95,10.0,West,6.9,16.1,N/A,,Clear,270,2013-01-21 21:15:00
4:35 PM,58.6,28.6,32,29.94,10.0,West,4.6,-,N/A,,Clear,260,2013-01-21 21:35:00
4:55 PM,58.1,27.1,31,29.94,10.0,WSW,4.6,-,N/A,,Clear,240,2013-01-21 21:55:00
5:15 PM,56.3,27.3,33,29.94,10.0,WSW,5.8,-,N/A,,Clear,240,2013-01-21 22:15:00
5:35 PM,54.3,27.5,36,29.94,10.0,SW,5.8,-,N/A,,Clear,230,2013-01-21 22:35:00
5:55 PM,53.8,27.5,36,29.94,10.0,WSW,4.6,-,N/A,,Clear,240,2013-01-21 22:55:00
6:15 PM,51.8,28.2,40,29.95,10.0,Calm,Calm,-,N/A,,Clear,0,2013-01-21 23:15:00
6:35 PM,47.5,28.8,48,29.95,10.0,Calm,Calm,-,N/A,,Clear,0,2013-01-21 23:35:00
6:55 PM,45.9,30.2,54,29.97,10.0,NNW,5.8,-,N/A,,Clear,330,2013-01-21 23:55:00
7:15 PM,51.8,27.3,39,29.98,10.0,WNW,6.9,-,N/A,,Clear,300,2013-01-22 00:15:00
7:35 PM,51.8,22.6,32,29.98,10.0,NW,5.8,16.1,N/A,,Clear,310,2013-01-22 00:35:00
7:55 PM,50.7,21.6,32,29.98,10.0,WNW,5.8,-,N/A,,Clear,300,2013-01-22 00:55:00
8:15 PM,49.3,21.2,33,30.00,10.0,NW,4.6,-,N/A,,Clear,320,2013-01-22 01:15:00
8:35 PM,48.6,20.1,33,30.00,10.0,NW,4.6,-,N/A,,Clear,320,2013-01-22 01:35:00
8:55 PM,46.9,19.6,34,30.01,10.0,NW,9.2,-,N/A,,Clear,310,2013-01-22 01:55:00
9:15 PM,46.6,18.3,32,30.01,10.0,WNW,4.6,-,N/A,,Clear,300,2013-01-22 02:15:00
9:35 PM,46.0,17.6,32,30.01,10.0,WNW,3.5,-,N/A,,Clear,290,2013-01-22 02:35:00
9:55 PM,44.6,17.6,34,30.02,10.0,Calm,Calm,-,N/A,,Clear,0,2013-01-22 02:55:00
10:15 PM,43.5,17.8,36,30.02,10.0,Calm,Calm,-,N/A,,Clear,0,2013-01-22 03:15:00
10:35 PM,40.3,19.4,43,30.02,10.0,Calm,Calm,-,N/A,,Clear,0,2013-01-22 03:35:00
10:55 PM,40.6,18.5,41,30.02,10.0,SW,3.5,-,N/A,,Clear,230,2013-01-22 03:55:00
11:15 PM,39.0,19.4,45,30.02,10.0,WSW,3.5,-,N/A,,Clear,240,2013-01-22 04:15:00
11:35 PM,36.5,20.5,52,30.02,10.0,WSW,3.5,-,N/A,,Clear,240,2013-01-22 04:35:00
11:55 PM,36.5,20.5,52,30.02,10.0,WSW,3.5,-,N/A,,Clear,240,2013-01-22 04:55:00